Weather History for Red Oak, IA

Change the Weather History Date:

Friday, March 1, 2013

  Actual Average Record
Temperature  
Mean Temperature 27 °F -  
Max Temperature 30 °F 48 °F 79 °F (1992)
Min Temperature 24 °F 23 °F -20 °F (1962)
Degree Days  
Heating Degree Days 38    
Moisture  
Dew Point 19 °F    
Average Humidity 72    
Maximum Humidity 80    
Minimum Humidity 64    
Precipitation  
Precipitation 0.00 in - - ()
Sea Level Pressure  
Sea Level Pressure 30.27 in    
Wind  
Wind Speed 10 mph (North)    
Max Wind Speed 14 mph    
Max Gust Speed 17 mph    
Visibility 9 miles    
Events Snow    
Averages and records for this station are not official NWS values.
T = Trace of Precipitation, MM = Missing Value Source: NWS Daily Summary

Daily Weather History Graph

Daily Weather History Graph

Search for Another Location

Airport:

Trip Planner

Search our weather history database for the weather conditions in past years. The results will help you decide how hot, cold, wet, or windy it might be!

Date:

Astronomy

Mar. 01, 2013 Rise Set
Actual Time 6:54 AM CST 6:12 PM CST
Civil Twilight 6:27 AM CST 6:40 PM CST
Nautical Twilight 5:55 AM CST 7:11 PM CST
Astronomical Twilight 5:23 AM CST 7:43 PM CST
Moon 10:49 PM CST (3/1) 8:39 AM CST (3/1)
Length of Visible Light 12h 12m
Length of Day
11h 17m
Waning Gibbous, 83% of the Moon is Illuminated
Mar 1
Waning Gibbous
Mar 4
Last Quarter
Mar 11
New
Mar 19
First Quarter
Mar 27
Full

Hourly Weather History & Observations

Time (CST) Temp. Windchill Dew Point Humidity Pressure Visibility Wind Dir Wind Speed Gust Speed Precip Events Conditions
12:15 AM 28.4 °F 19.7 °F 21.2 °F 74% 30.19 in 10.0 mi NW 9.2 mph - N/A   Overcast
12:35 AM 28.4 °F 21.2 °F 21.2 °F 74% 30.20 in 10.0 mi NW 6.9 mph - N/A   Overcast
12:55 AM 28.4 °F 20.4 °F 21.2 °F 74% 30.20 in 10.0 mi NW 8.1 mph - N/A   Overcast
1:40 AM 28.4 °F 19.7 °F 19.4 °F 69% 30.20 in 10.0 mi North 9.2 mph - N/A   Overcast
1:57 AM 28.4 °F 19.7 °F 19.4 °F 69% 30.20 in 10.0 mi North 9.2 mph - N/A   Overcast
2:19 AM 28.4 °F 18.5 °F 19.4 °F 69% 30.20 in 10.0 mi North 11.5 mph - N/A   Overcast
2:38 AM 26.6 °F 17.5 °F 19.4 °F 74% 30.20 in 10.0 mi NNW 9.2 mph - N/A   Overcast
2:55 AM 26.6 °F 18.2 °F 19.4 °F 74% 30.20 in 10.0 mi NNW 8.1 mph - N/A   Overcast
3:15 AM 26.6 °F 17.5 °F 19.4 °F 74% 30.19 in 10.0 mi NNW 9.2 mph - N/A   Overcast
3:35 AM 26.6 °F 17.5 °F 19.4 °F 74% 30.19 in 10.0 mi NNW 9.2 mph - N/A   Overcast
3:55 AM 26.6 °F 17.5 °F 19.4 °F 74% 30.19 in 10.0 mi NNW 9.2 mph - N/A   Overcast
4:15 AM 26.6 °F 17.5 °F 19.4 °F 74% 30.20 in 10.0 mi NNW 9.2 mph - N/A   Overcast
4:35 AM 26.6 °F 16.8 °F 19.4 °F 74% 30.20 in 10.0 mi NNW 10.4 mph - N/A   Overcast
4:55 AM 26.6 °F 16.8 °F 19.4 °F 74% 30.20 in 10.0 mi NNW 10.4 mph - N/A   Overcast
5:15 AM 26.6 °F 17.5 °F 19.4 °F 74% 30.21 in 10.0 mi NW 9.2 mph - N/A   Overcast
5:35 AM 26.6 °F 17.5 °F 19.4 °F 74% 30.21 in 10.0 mi NW 9.2 mph - N/A   Overcast
6:15 AM 26.6 °F 18.2 °F 19.4 °F 74% 30.21 in 10.0 mi NNW 8.1 mph - N/A Snow Light Snow
6:35 AM 26.6 °F 17.5 °F 19.4 °F 74% 30.22 in 10.0 mi NNW 9.2 mph - N/A Snow Light Snow
6:55 AM 26.6 °F 17.5 °F 19.4 °F 74% 30.22 in 10.0 mi NNW 9.2 mph - N/A Snow Light Snow
7:15 AM 26.6 °F 17.5 °F 19.4 °F 74% 30.22 in 10.0 mi NW 9.2 mph - N/A Snow Light Snow
7:35 AM 26.6 °F 18.2 °F 21.2 °F 80% 30.23 in 10.0 mi NNW 8.1 mph - N/A Snow Light Snow
8:15 AM 26.6 °F 17.5 °F 21.2 °F 80% 30.24 in 4.0 mi NNW 9.2 mph - N/A Snow Light Snow
8:35 AM 26.6 °F 16.8 °F 21.2 °F 80% 30.24 in 5.0 mi NNW 10.4 mph - N/A Snow Light Snow
8:55 AM 26.6 °F 16.8 °F 21.2 °F 80% 30.25 in 4.0 mi NW 10.4 mph - N/A Snow Light Snow
9:15 AM 26.6 °F 17.5 °F 21.2 °F 80% 30.25 in 4.0 mi NNW 9.2 mph - N/A Snow Light Snow
9:35 AM 28.4 °F 18.5 °F 21.2 °F 74% 30.26 in 4.0 mi NNW 11.5 mph - N/A Snow Light Snow
9:55 AM 28.4 °F 19.7 °F 21.2 °F 74% 30.26 in 7.0 mi North 9.2 mph - N/A Snow Light Snow
10:15 AM 28.4 °F 17.5 °F 21.2 °F 74% 30.26 in 7.0 mi North 13.8 mph - N/A Snow Light Snow
10:35 AM 28.4 °F 17.5 °F 21.2 °F 74% 30.26 in 7.0 mi North 13.8 mph - N/A Snow Light Snow
10:55 AM 28.4 °F 18.5 °F 21.2 °F 74% 30.26 in 10.0 mi North 11.5 mph - N/A Snow Light Snow
11:15 AM 28.4 °F 18.0 °F 19.4 °F 69% 30.26 in 7.0 mi North 12.7 mph - N/A Snow Light Snow
11:35 AM 28.4 °F 18.5 °F 19.4 °F 69% 30.27 in 4.0 mi North 11.5 mph - N/A Snow Light Snow
12:15 PM 28.4 °F 17.5 °F 17.6 °F 64% 30.26 in 10.0 mi North 13.8 mph - N/A   Overcast
12:35 PM 28.4 °F 17.5 °F 21.2 °F 74% 30.27 in 5.0 mi North 13.8 mph - N/A Snow Light Snow
12:55 PM 30.2 °F 20.2 °F 19.4 °F 64% 30.26 in 10.0 mi North 12.7 mph 17.3 mph N/A   Overcast
1:15 PM 28.4 °F 18.5 °F 21.2 °F 74% 30.26 in 5.0 mi North 11.5 mph - N/A Snow Light Snow
1:35 PM 30.2 °F 20.2 °F 21.2 °F 69% 30.26 in 10.0 mi North 12.7 mph - N/A Snow Light Snow
1:55 PM 28.4 °F 18.0 °F 19.4 °F 69% 30.26 in 7.0 mi North 12.7 mph - N/A Snow Light Snow
2:15 PM 30.2 °F 20.8 °F 19.4 °F 64% 30.26 in 10.0 mi North 11.5 mph - N/A   Overcast
2:35 PM 30.2 °F 20.2 °F 19.4 °F 64% 30.26 in 10.0 mi North 12.7 mph - N/A   Overcast
3:15 PM 28.4 °F 18.0 °F 21.2 °F 74% 30.27 in 4.0 mi North 12.7 mph - N/A Snow Light Snow
3:35 PM 28.4 °F 19.1 °F 21.2 °F 74% 30.27 in 10.0 mi North 10.4 mph - N/A   Overcast
3:55 PM 28.4 °F 18.5 °F 19.4 °F 69% 30.27 in 10.0 mi North 11.5 mph - N/A   Overcast
4:15 PM 28.4 °F 17.5 °F 19.4 °F 69% 30.28 in 10.0 mi North 13.8 mph - N/A   Overcast
4:35 PM 28.4 °F 18.5 °F 19.4 °F 69% 30.28 in 10.0 mi North 11.5 mph - N/A   Overcast
5:15 PM 28.4 °F 18.0 °F 19.4 °F 69% 30.29 in 10.0 mi North 12.7 mph - N/A   Overcast
5:35 PM 28.4 °F 18.0 °F 19.4 °F 69% 30.30 in 10.0 mi North 12.7 mph - N/A   Overcast
5:55 PM 26.6 °F 15.7 °F 19.4 °F 74% 30.31 in 10.0 mi North 12.7 mph - N/A   Overcast
6:15 PM 26.6 °F 16.2 °F 19.4 °F 74% 30.31 in 10.0 mi North 11.5 mph - N/A   Overcast
6:35 PM 26.6 °F 16.8 °F 17.6 °F 69% 30.32 in 10.0 mi North 10.4 mph - N/A   Overcast
6:55 PM 26.6 °F 15.7 °F 17.6 °F 69% 30.33 in 10.0 mi North 12.7 mph - N/A   Overcast
7:15 PM 26.6 °F 16.8 °F 17.6 °F 69% 30.32 in 10.0 mi North 10.4 mph - N/A   Overcast
7:35 PM 26.6 °F 16.8 °F 17.6 °F 69% 30.33 in 10.0 mi North 10.4 mph - N/A   Overcast
7:55 PM 26.6 °F 15.7 °F 17.6 °F 69% 30.33 in 10.0 mi North 12.7 mph - N/A   Overcast
8:15 PM 26.6 °F 15.2 °F 15.8 °F 64% 30.33 in 10.0 mi NNE 13.8 mph - N/A   Overcast
8:35 PM 24.8 °F 14.0 °F 15.8 °F 69% 30.34 in 10.0 mi NNE 11.5 mph - N/A   Overcast
8:55 PM 24.8 °F 15.3 °F 15.8 °F 69% 30.34 in 10.0 mi North 9.2 mph - N/A   Overcast
9:15 PM 24.8 °F 15.3 °F 15.8 °F 69% 30.35 in 10.0 mi North 9.2 mph - N/A   Overcast
9:35 PM 24.8 °F 14.6 °F 15.8 °F 69% 30.35 in 10.0 mi North 10.4 mph - N/A   Overcast
9:55 PM 24.8 °F 15.3 °F 15.8 °F 69% 30.34 in 10.0 mi NNE 9.2 mph - N/A   Overcast
10:15 PM 24.8 °F 14.6 °F 15.8 °F 69% 30.34 in 10.0 mi North 10.4 mph - N/A   Overcast
10:35 PM 24.8 °F 14.6 °F 15.8 °F 69% 30.34 in 10.0 mi North 10.4 mph - N/A   Overcast
10:55 PM 24.8 °F 14.6 °F 15.8 °F 69% 30.35 in 10.0 mi North 10.4 mph - N/A   Overcast
11:15 PM 24.8 °F 15.3 °F 15.8 °F 69% 30.35 in 10.0 mi North 9.2 mph - N/A   Overcast
11:35 PM 24.8 °F 15.3 °F 15.8 °F 69% 30.35 in 10.0 mi North 9.2 mph - N/A   Overcast
11:55 PM 24.8 °F 15.3 °F 15.8 °F 69% 30.34 in 10.0 mi North 9.2 mph - N/A   Overcast